Location: Unspecified
(64.9000°N, 0.0000°E)
Time: 18:37:52
(UTC+00:00)

Vanguard 1 - All Passes

Search period start: 18 June 2019 00:00
Search period end: 28 June 2019 00:00
Orbit: 654 x 3829 km, 34.2° (Epoch: 17 June)

Date Brightness Start Highest point End Pass type
(mag) Time Alt. Az. Time Alt. Az. Time Alt. Az.
23 Jun - 04:02:00 10° SSW 04:04:19 11° S 04:06:27 10° S daylight
24 Jun - 02:03:58 10° S 02:05:40 10° SSE 02:07:17 10° SSE daylight
24 Jun - 04:21:09 10° SSW 04:24:32 11° S 04:27:31 10° S daylight
25 Jun - 02:20:34 10° S 02:25:55 12° S 02:30:30 10° SSE daylight
25 Jun - 04:41:08 10° SSW 04:44:42 11° SSW 04:47:50 10° S daylight
26 Jun - 02:39:09 10° SSW 02:46:09 14° S 02:51:53 10° SSE daylight
26 Jun - 05:01:48 10° SW 05:04:49 11° SSW 05:07:32 10° S daylight
27 Jun - 00:41:58 10° S 00:47:05 12° SSE 00:51:38 10° SE daylight
27 Jun - 02:58:26 10° SSW 03:06:22 15° S 03:12:43 10° SSE daylight
27 Jun - 05:23:45 10° SSW 05:24:52 10° SSW 05:25:55 10° SSW daylight
